Miscellaneous Local Product
Issued by NWS Hastings, NE

Home | Current Version | Previous Version | Text Only | Print | Product List | Glossary Off
Versions: 1 2 3 4 5 6 7 8 9 10 11 12 13 14 15 16 17 18 19 20 21 22 23 24 25 26 27 28 29 30 31 32 33 34 35 36 37 38 39 40 41 42 43 44 45 46 47 48 49 50

000
AXUS43 KGID 211602
MISGRI

GID CWA HOURLY WEATHER ROUNDUP
NATIONAL WEATHER SERVICE HASTINGS NE
1100 AM CDT SUN SEP 21 2014

NOTE: "FAIR" INDICATES FEW OR NO CLOUDS BELOW 12,000 FEET WITH NO
SIGNIFICANT WEATHER AND/OR OBSTRUCTIONS TO VISIBILITY.

...SOUTH CENTRAL NEBRASKA...

CITY           SKY/WX    TMP DP  RH WIND       PRES   REMARKS
GRAND ISLAND   SUNNY     68  43  40 N10       30.30S
HASTINGS       SUNNY     67  41  38 N12       30.30R
KEARNEY        SUNNY     66  43  42 NW9       30.32S
ORD            SUNNY     66  45  46 N10       30.30S
YORK           SUNNY     64  46  52 N14       30.28S
AURORA         SUNNY     67  42  39 N10       30.28F
LEXINGTON      MOSUNNY   67  41  38 N6        30.34S
HOLDREGE       SUNNY     65  41  40 N10       30.32S
HEBRON         SUNNY     70  41  34 N10       30.27S

...NEBRASKA PANHANDLE...

CITY           SKY/WX    TMP DP  RH WIND       PRES   REMARKS
CHADRON        SUNNY     63  39  41 CALM      30.37S
ALLIANCE       CLOUDY    63  38  39 E5        30.39R
SCOTTSBLUFF    CLOUDY    62  40  44 SE6       30.40R
SIDNEY         CLOUDY    63  39  41 E6        30.41F

...WESTERN AND NORTH CENTRAL NEBRASKA...

CITY           SKY/WX    TMP DP  RH WIND       PRES   REMARKS
VALENTINE      SUNNY     67  38  34 N9        30.34S
AINSWORTH      SUNNY     64  40  40 N12       30.34R
ONEILL         SUNNY     64  46  53 NW10      30.31S
BROKEN BOW     SUNNY     69  40  34 N10       30.33R
IMPERIAL       SUNNY     68  35  29 NE8       30.38R
NORTH PLATTE   PTSUNNY   62  46  55 SW3       30.36R
MCCOOK         PTSUNNY   69  40  34 NE9       30.35R

...EASTERN NEBRASKA...

CITY           SKY/WX    TMP DP  RH WIND       PRES   REMARKS
NORFOLK        SUNNY     66  47  50 NW12      30.27R
SO SIOUX CITY  SUNNY     63  48  58 NW10      30.23R
TEKAMAH        SUNNY     68  48  48 N16G22    30.23R
COLUMBUS       SUNNY     66  46  48 NW10G16   30.28S
ALBION         SUNNY     65  43  44 NW9       30.29S
OMAHA EPPLEY   SUNNY     66  49  54 N16       30.22S
OFFUTT AFB     SUNNY     66  50  55 NW14      30.22R
MILLARD        SUNNY     65  48  54 NW7       30.22F
LINCOLN        SUNNY     69  47  45 NW13      30.25S
NEBRASKA CITY    N/A     67  39  35 N15       30.22R
BEATRICE       SUNNY     70  45  40 N10G22    30.24S
FALLS CITY     SUNNY     71  50  47 NW13G18   30.20R

...NORTHERN KANSAS...

CITY           SKY/WX    TMP DP  RH WIND       PRES   REMARKS
GOODLAND       PTSUNNY   65  43  44 NE5       30.39R
HILL CITY      MOSUNNY   71  42  35 NE8       30.32R
NORTON         SUNNY     70  36  28 NE10      30.32R
SMITH CENTER   SUNNY     72  41  33 N10       30.30S
BELOIT         SUNNY     73  45  35 N6        30.27R
HAYS           SUNNY     70  46  43 NE9       30.31R
RUSSELL        SUNNY     72  48  42 NE8       30.28R
CONCORDIA      SUNNY     71  46  40 N12       30.26R
SALINA         SUNNY     72  55  55 N8        30.26R
TOPEKA         SUNNY     72  57  59 NW8       30.20S



USA.gov is the U.S. government's official web portal to all federal, state and local government web resources and services.